[[{"header":{"parameterUnit":"m.s-1","parameterCategory":1,"la1":30.2991,"la2":30.254,"lo1":-89.0895,"lo2":-89.0444,"dy":0.0017,"dx":0.0017,"nx":28,"ny":28,"refTime":"2024-03-19T09:00:00:Z","depth":0,"parameterNumber":2,"parameterNumberName":"U-component_of_WINDS"},"data":[0,0,0,0,0,0,0,0,0,0,0,0,0,0,0,0,0,0,0,0,0,0,0,0,0,0,0,0,0,0,0,0,0,0,0,0,0,0,0,0,0,0,0,0,0,0,0,0,0,0,0,0,0,0,0,0,0,0,-0.3434,-0.3434,0,-0.3429,-0.3429,-0.3429,-0.3414,-0.3414,-0.3413,-0.3413,-0.3406,-0.3406,-0.3406,0,0,0,0,0,0,0,0,0,0,0,0,0,-0.3432,-0.3432,-0.3434,-0.3434,-0.3434,-0.3429,-0.3429,-0.3429,-0.3414,-0.3414,-0.3413,-0.3413,-0.3406,-0.3406,-0.3406,0,0,0,0,0,0,0,0,0,0,0,0,0,-0.3431,-0.3432,-0.3434,-0.3426,-0.3426,-0.3429,-0.3429,-0.3429,-0.3414,-0.3414,-0.3413,-0.3413,-0.3406,-0.3406,-0.3406,-0.3416,0,0,-0.3406,-0.3406,0,0,0,0,0,0,0,0,-0.3431,-0.3431,-0.3428,-0.3427,-0.3426,-0.3422,-0.3425,-0.3424,-0.3414,-0.3418,-0.3413,-0.3413,-0.3411,-0.3411,-0.3411,-0.3416,-0.3415,-0.3406,-0.3406,-0.3406,-0.3406,0,0,0,0,0,0,0,-0.3431,-0.3431,-0.3432,-0.3428,-0.3427,-0.3423,-0.3422,-0.3425,-0.3417,-0.3418,-0.3417,-0.3417,-0.3411,-0.3411,-0.3411,-0.3415,-0.3406,-0.3406,-0.3406,-0.3407,-0.343,-0.3431,0,0,0,0,0,0,-0.3432,-0.3431,-0.3432,-0.3432,-0.3427,-0.3423,-0.3423,-0.3424,-0.3417,-0.3416,-0.3417,-0.3416,-0.3411,-0.341,-0.341,-0.3423,-0.3406,-0.3407,-0.3407,-0.343,-0.343,-0.3431,0,0,0,0,0,0,-0.3432,-0.3432,-0.3433,-0.3431,-0.3431,-0.3424,-0.3425,-0.3424,-0.3424,-0.3417,-0.3415,-0.3418,-0.341,-0.341,-0.3415,-0.3422,-0.3407,-0.3407,-0.3429,-0.343,-0.3431,-0.3448,0,0,0,0,0,0,-0.3432,-0.3433,-0.3436,-0.3431,-0.3431,-0.3438,-0.3426,-0.3424,-0.3424,-0.3423,-0.3418,-0.3416,-0.341,-0.3415,-0.3415,-0.3422,-0.3407,-0.3428,-0.3429,-0.343,-0.3447,-0.3449,-0.3451,0,0,0,0,0,-0.3432,-0.344,-0.3436,-0.3437,-0.3436,-0.3438,-0.3438,-0.3431,-0.3425,-0.3429,-0.3424,-0.3416,-0.3422,-0.3416,-0.3416,-0.3423,-0.3428,-0.3429,-0.343,-0.3445,-0.3449,-0.3451,0,0,0,0,0,0,-0.3445,-0.3439,-0.3435,-0.3442,-0.3441,-0.3436,-0.344,-0.3434,-0.3434,-0.3433,-0.3424,-0.3423,-0.343,-0.3427,-0.342,-0.3434,-0.3424,-0.3425,-0.3435,-0.3438,-0.344,-0.3441,-0.3407,0,0,0,0,0,-0.3449,-0.3451,-0.3446,-0.3453,-0.3453,-0.3447,-0.3447,-0.3443,-0.3441,-0.344,-0.3436,-0.3434,-0.3436,-0.3437,-0.3437,-0.3446,-0.3446,-0.3451,-0.3454,-0.3456,-0.3457,-0.3463,-0.3466,-0.3435,-0.3435,-0.3435,0,0,-0.3456,-0.3453,-0.3456,-0.3456,-0.3454,-0.3458,-0.3446,-0.345,-0.3452,-0.344,-0.3445,-0.3443,-0.344,-0.3448,-0.3451,-0.3446,-0.3466,-0.3457,-0.3459,-0.3459,-0.3465,-0.3468,-0.3471,-0.3436,-0.3436,-0.3435,0,0,-0.3471,-0.347,-0.3476,-0.3475,-0.3473,-0.347,-0.3471,-0.3468,-0.3466,-0.3471,-0.3463,-0.3466,-0.3468,-0.3467,-0.3467,-0.3485,-0.3478,-0.3485,-0.3498,-0.3504,-0.3506,-0.3509,-0.3516,-0.3519,-0.3487,-0.3487,-0.3487,0,-0.3481,-0.3486,-0.3479,-0.3484,-0.3485,-0.3476,-0.3482,-0.3482,-0.348,-0.3481,-0.3476,-0.348,-0.3477,-0.3485,-0.349,-0.349,-0.3492,-0.3486,-0.3507,-0.3509,-0.3511,-0.3518,-0.352,-0.3488,-0.3487,-0.3487,-0.3487,0,-0.3498,-0.3502,-0.3507,-0.3507,-0.3509,-0.3514,-0.3509,-0.3511,-0.3507,-0.3504,-0.351,-0.3508,-0.3508,-0.351,-0.3505,-0.3518,-0.3515,-0.3508,-0.3498,-0.3515,-0.3521,-0.3524,-0.3489,-0.3489,-0.3488,-0.3488,0,0,-0.352,-0.3518,-0.352,-0.3521,-0.352,-0.3523,-0.3529,-0.3531,-0.3533,-0.3533,-0.3538,-0.3542,-0.3536,-0.3536,-0.3531,-0.3536,-0.3553,-0.3529,-0.3529,-0.3534,-0.3569,-0.3574,-0.3577,-0.3548,-0.3549,-0.3549,-0.3569,0,-0.3535,-0.3545,-0.3541,-0.3552,-0.3556,-0.3548,-0.3554,-0.3554,-0.3552,-0.3555,-0.3552,-0.3555,-0.3547,-0.3547,-0.3552,-0.355,-0.3559,-0.3548,-0.3553,-0.3554,-0.3555,-0.3581,-0.3586,-0.3605,-0.3572,-0.3572,-0.3572,0,-0.3554,-0.3556,-0.3568,-0.3568,-0.357,-0.3574,-0.3577,-0.358,-0.3581,-0.3579,-0.358,-0.3575,-0.3581,-0.3571,-0.358,-0.3573,-0.3575,-0.3574,-0.3575,-0.3575,-0.3564,-0.3583,-0.3611,-0.3614,-0.3576,-0.3576,-0.3576,0,-0.357,-0.3576,-0.3584,-0.3585,-0.3585,-0.3589,-0.3589,-0.3589,-0.3591,-0.3594,-0.3595,-0.3598,-0.3599,-0.3602,-0.3597,-0.359,-0.3608,-0.3597,-0.3607,-0.3607,-0.3611,-0.361,-0.364,-0.3611,-0.3611,-0.3611,-0.3611,0,-0.3588,-0.3596,-0.3592,-0.3597,-0.3606,-0.3601,-0.361,-0.3609,-0.361,-0.3615,-0.3608,-0.3613,-0.3607,-0.3611,-0.3608,-0.3617,-0.3617,-0.3617,-0.3616,-0.3618,-0.3618,-0.3619,-0.3618,-0.3612,-0.3612,-0.3612,-0.3611,0,-0.3608,-0.3605,-0.3614,-0.3614,-0.3614,-0.3621,-0.3621,-0.3626,-0.3624,-0.3631,-0.3632,-0.3629,-0.3634,-0.3631,-0.3635,-0.3633,-0.3645,-0.3642,-0.3646,-0.3645,-0.3655,-0.3655,-0.3687,-0.3692,-0.3659,-0.366,-0.366,0,-0.3619,-0.3625,-0.3627,-0.363,-0.3631,-0.3636,-0.3639,-0.3635,-0.3638,-0.3641,-0.3646,-0.3651,-0.3654,-0.3663,-0.3662,-0.3666,-0.3663,-0.3675,-0.3664,-0.3666,-0.3665,-0.3665,-0.3666,-0.3677,-0.3677,-0.3677,-0.3678,0,-0.3641,-0.364,-0.3645,-0.365,-0.3653,-0.3657,-0.3659,-0.3663,-0.3659,-0.3663,-0.3669,-0.3672,-0.3678,-0.3684,-0.3688,-0.3688,-0.3683,-0.3681,-0.3684,-0.3686,-0.3688,-0.3688,-0.3652,-0.368,-0.368,-0.368,-0.368,-0.368,-0.3657,-0.3663,-0.3666,-0.3671,-0.3674,-0.3677,-0.3682,-0.3682,-0.3687,-0.3692,-0.369,-0.3697,-0.3699,-0.3704,-0.3705,-0.3711,-0.3707,-0.371,-0.3711,-0.3712,-0.3715,-0.3687,-0.3712,-0.3712,-0.3712,-0.3712,-0.3712,0,-0.3679,-0.3681,-0.3687,-0.3692,-0.3697,-0.3692,-0.3696,-0.37,-0.3707,-0.371,-0.3715,-0.3722,-0.3728,-0.3728,-0.3733,-0.3738,-0.3736,-0.374,-0.374,-0.374,-0.3718,-0.3715,-0.3742,-0.3742,-0.3742,-0.3742,-0.3742,-0.3742,-0.3692,-0.3702,-0.3702,-0.3713,-0.3715,-0.3723,-0.3725,-0.3729,-0.3731,-0.374,-0.3746,-0.3746,-0.3748,-0.3754,-0.3759,-0.3759,-0.3762,-0.3767,-0.3766,-0.3745,-0.3742,-0.3739,-0.3737,-0.3767,-0.3767,-0.3788,-0.3788,-0.3789]},{"header":{"parameterUnit":"m.s-1","parameterCategory":1,"la1":30.2991,"la2":30.254,"lo1":-89.0895,"lo2":-89.0444,"dy":0.0017,"dx":0.0017,"nx":28,"ny":28,"refTime":"2024-03-19T09:00:00:Z","depth":0,"parameterNumber":3,"parameterNumberName":"V-component_of_WINDS"},"data":[0,0,0,0,0,0,0,0,0,0,0,0,0,0,0,0,0,0,0,0,0,0,0,0,0,0,0,0,0,0,0,0,0,0,0,0,0,0,0,0,0,0,0,0,0,0,0,0,0,0,0,0,0,0,0,0,0,0,3.3543,3.3543,0,3.3518,3.3518,3.3517,3.3544,3.3545,3.3546,3.3547,3.3515,3.3513,3.3511,0,0,0,0,0,0,0,0,0,0,0,0,0,3.3611,3.3609,3.3544,3.3543,3.3543,3.3518,3.3518,3.3517,3.3544,3.3545,3.3547,3.3548,3.3516,3.3514,3.3511,0,0,0,0,0,0,0,0,0,0,0,0,0,3.3583,3.3609,3.3544,3.3553,3.3554,3.3518,3.3518,3.3517,3.3544,3.3545,3.3547,3.3549,3.3516,3.3514,3.3511,3.3462,0,0,3.3503,3.3501,0,0,0,0,0,0,0,0,3.3584,3.358,3.3552,3.3553,3.3553,3.3536,3.353,3.3498,3.3543,3.3548,3.3547,3.3549,3.352,3.3517,3.3509,3.3461,3.3459,3.3502,3.3501,3.3499,3.3499,0,0,0,0,0,0,0,3.3586,3.3581,3.3533,3.3552,3.3552,3.3558,3.3555,3.3524,3.3525,3.3547,3.3549,3.3546,3.3521,3.3512,3.3508,3.3459,3.3502,3.35,3.3498,3.3497,3.3369,3.3367,0,0,0,0,0,0,3.3588,3.3583,3.3534,3.3532,3.3573,3.3555,3.3553,3.354,3.3526,3.3525,3.3545,3.3548,3.3515,3.3512,3.3507,3.3449,3.3499,3.3497,3.3495,3.3371,3.3368,3.3367,0,0,0,0,0,0,3.3589,3.3583,3.3535,3.3558,3.3553,3.3552,3.3538,3.3539,3.3529,3.3524,3.3524,3.3535,3.3517,3.3511,3.3474,3.3448,3.3496,3.3493,3.3373,3.337,3.3368,3.3331,0,0,0,0,0,0,3.3591,3.3584,3.3566,3.3558,3.3551,3.3503,3.3536,3.3537,3.3525,3.3528,3.3515,3.3514,3.3517,3.3478,3.3471,3.3445,3.3491,3.3375,3.3371,3.3368,3.3335,3.3328,3.3322,0,0,0,0,0,3.3593,3.3555,3.3565,3.3559,3.353,3.3502,3.3498,3.3504,3.3523,3.3505,3.3501,3.3514,3.3452,3.3474,3.3466,3.3439,3.3376,3.3372,3.3369,3.3338,3.3329,3.3322,0,0,0,0,0,0,3.3558,3.3554,3.3565,3.3524,3.3513,3.3506,3.3483,3.3495,3.3477,3.348,3.3488,3.3484,3.3444,3.3438,3.3462,3.3391,3.3417,3.3412,3.3396,3.3388,3.3382,3.3383,3.3489,0,0,0,0,0,3.3546,3.3526,3.3523,3.3486,3.3481,3.3483,3.3471,3.3477,3.3466,3.346,3.3454,3.3441,3.3418,3.3403,3.3382,3.3335,3.3331,3.3313,3.3306,3.3301,3.3295,3.3269,3.326,3.3354,3.3354,3.3354,0,0,3.352,3.3515,3.3501,3.3479,3.3472,3.3449,3.3479,3.3453,3.3435,3.3456,3.342,3.3415,3.3401,3.3358,3.3339,3.3352,3.3269,3.3296,3.3292,3.3289,3.3264,3.3255,3.3247,3.3351,3.3351,3.3352,0,0,3.346,3.3456,3.3425,3.3417,3.3406,3.3408,3.3401,3.3393,3.3391,3.3356,3.3371,3.335,3.3311,3.33,3.3289,3.3227,3.3238,3.322,3.3185,3.316,3.3153,3.3146,3.3123,3.3114,3.3215,3.3215,3.3215,0,3.3428,3.3396,3.3407,3.338,3.337,3.339,3.3358,3.335,3.3332,3.3323,3.3338,3.3291,3.3282,3.3237,3.3222,3.3213,3.3204,3.3221,3.3153,3.3147,3.3141,3.3118,3.311,3.3213,3.3213,3.3213,3.3213,0,3.3357,3.3334,3.331,3.3295,3.3282,3.3252,3.3258,3.3243,3.3251,3.325,3.3214,3.3205,3.3183,3.3173,3.3179,3.3128,3.3137,3.3153,3.3179,3.3129,3.3109,3.31,3.321,3.321,3.3211,3.3212,0,0,3.3272,3.3265,3.3256,3.3249,3.3239,3.3221,3.3192,3.3173,3.3159,3.3147,3.3122,3.3089,3.3105,3.3092,3.3098,3.3076,3.3026,3.3094,3.3094,3.3081,3.2968,3.2955,3.2945,3.3035,3.3033,3.3032,3.2969,0,3.3211,3.3164,3.3174,3.3127,3.3105,3.3125,3.31,3.309,3.309,3.307,3.3069,3.3046,3.3068,3.3061,3.304,3.3037,3.3003,3.3042,3.3009,3.3008,3.3011,3.2935,3.2921,3.2862,3.2961,3.296,3.2959,0,3.3134,3.3121,3.3072,3.3066,3.3058,3.3035,3.3018,3.3,3.2989,3.299,3.2978,3.2988,3.2958,3.2986,3.2944,3.297,3.2958,3.2954,3.2952,3.2948,3.2979,3.2927,3.2844,3.2834,3.2946,3.2947,3.2948,0,3.3076,3.3045,3.3013,3.3006,3.2999,3.2983,3.2979,3.297,3.2958,3.2942,3.2934,3.2915,3.2904,3.2888,3.2892,3.2912,3.2848,3.2877,3.2847,3.2847,3.2831,3.2831,3.2743,3.2825,3.2826,3.2826,3.2826,0,3.3006,3.2975,3.2986,3.2966,3.2931,3.2943,3.2908,3.2906,3.2898,3.2876,3.2892,3.2871,3.2879,3.2857,3.286,3.2825,3.282,3.2818,3.2819,3.2816,3.2816,3.2806,3.281,3.2823,3.2824,3.2824,3.2825,0,3.2934,3.2941,3.2906,3.2903,3.2902,3.2876,3.2873,3.2853,3.2855,3.2827,3.2821,3.2822,3.2798,3.2802,3.2774,3.2776,3.2732,3.2738,3.2736,3.2736,3.2705,3.2708,3.2606,3.2593,3.2686,3.2685,3.2684,0,3.2888,3.2865,3.2861,3.2849,3.2844,3.2823,3.2812,3.2822,3.2809,3.2796,3.2777,3.2755,3.2738,3.2698,3.2696,3.2675,3.268,3.2646,3.2677,3.2674,3.2678,3.2679,3.2676,3.2639,3.2638,3.2637,3.2637,0,3.2806,3.2811,3.2795,3.2779,3.2766,3.2753,3.2743,3.2731,3.274,3.2724,3.2701,3.2688,3.2662,3.2639,3.262,3.2614,3.2626,3.2627,3.2619,3.2615,3.2614,3.2613,3.2717,3.2629,3.263,3.263,3.2631,3.2631,3.2745,3.2726,3.272,3.2701,3.2694,3.2684,3.2666,3.2666,3.2648,3.2628,3.2635,3.2608,3.2598,3.2574,3.2566,3.2545,3.2557,3.2545,3.2541,3.2538,3.2534,3.2619,3.2541,3.2541,3.2542,3.2542,3.2542,0,3.2663,3.2661,3.2643,3.2629,3.2614,3.263,3.2619,3.2604,3.2582,3.2572,3.2556,3.2529,3.2508,3.2505,3.2484,3.2467,3.2472,3.2461,3.2461,3.246,3.2525,3.2533,3.2457,3.2457,3.2457,3.2457,3.2457,3.2457,3.2618,3.2586,3.259,3.2555,3.2552,3.2528,3.252,3.2511,3.2503,3.2474,3.2457,3.2456,3.2448,3.2428,3.2408,3.2408,3.2399,3.2385,3.2386,3.2447,3.2455,3.2463,3.2471,3.2383,3.2383,3.2323,3.2323,3.2322]}]]